Volver al catálogo

WENWU 01

ActivoCienciaSSO
NORAD 69539·PAYLOAD·🇨🇳 China
Este nombre de satélite aún no ha sido confirmado por fuentes oficiales.

Lanzado Jun 15, 2026 desde Jiuquan Satellite Launch Center

Loading…

Próximos Pases (próximas 24 horas)

TLE

ActualizadoSource: Space-Track

Época: Sep 14, 2026, 15:14 UTC

1 69539U 26134B   26257.63519650  .00003314  00000-0  21489-3 0  9993
2 69539  97.6904 328.0025 0015180 330.8132  29.2246 15.08724519 13791

Sigue WENWU 01 en tiempo real con AllMySat

Download on the App Store